Time,TemperatureF,DewpointF,PressureIn,WindDirection,WindDirectionDegrees,WindSpeedMPH,WindSpeedGustMPH,Humidity,HourlyPrecipIn,Conditions,Clouds,dailyrainin,SoftwareType,DateUTC
2013-07-04 12:11:00,86.0,66.0,30.40,NNW,338,1.0,1.0,51,0.00,,,1.02,,2013-07-04 16:11:00,
2013-07-04 12:22:00,86.0,66.0,30.40,South,182,2.0,2.0,52,0.00,,,0.71,,2013-07-04 16:22:00,
2013-07-04 12:52:00,86.0,66.0,30.39,WSW,253,2.0,3.0,52,0.00,,,0.71,,2013-07-04 16:52:00,
2013-07-04 13:02:00,88.0,70.0,30.39,SW,225,0.0,3.0,55,0.00,,,0.71,,2013-07-04 17:02:00,
2013-07-04 13:12:00,89.0,72.0,30.38,WNW,290,1.0,2.0,57,0.00,,,0.71,,2013-07-04 17:12:00,
2013-07-04 13:22:00,89.0,72.0,30.38,South,180,3.0,3.0,57,0.00,,,0.49,,2013-07-04 17:22:00,
2013-07-04 13:34:00,89.0,71.0,30.38,SSE,165,2.0,2.0,56,0.00,,,0.49,,2013-07-04 17:34:00,
2013-07-04 13:43:00,90.0,73.0,30.38,South,180,1.0,3.0,57,0.00,,,0.49,,2013-07-04 17:43:00,
2013-07-04 13:53:00,91.0,75.0,30.38,SW,225,2.0,3.0,59,0.00,,,0.49,,2013-07-04 17:53:00,
2013-07-04 14:01:00,90.0,74.0,30.38,SW,216,2.0,3.0,59,0.00,,,0.49,,2013-07-04 18:01:00,
2013-07-04 14:11:00,90.0,73.0,30.38,East,90,1.0,2.0,58,0.00,,,0.49,,2013-07-04 18:11:00,
2013-07-04 14:22:00,90.0,74.0,30.37,NNW,338,0.0,1.0,59,0.00,,,0.30,,2013-07-04 18:22:00,
2013-07-04 14:33:00,89.0,73.0,30.37,SW,215,2.0,3.0,60,0.00,,,0.30,,2013-07-04 18:33:00,
2013-07-04 14:43:00,89.0,73.0,30.37,NNW,336,2.0,2.0,60,0.00,,,0.30,,2013-07-04 18:43:00,
2013-07-04 14:52:00,90.0,74.0,30.36,NW,308,3.0,3.0,60,0.00,,,0.30,,2013-07-04 18:52:00,
2013-07-04 15:02:00,89.0,73.0,30.36,NNW,338,1.0,3.0,60,0.00,,,0.30,,2013-07-04 19:02:00,
2013-07-04 15:12:00,89.0,73.0,30.36,SW,225,1.0,3.0,60,0.00,,,0.30,,2013-07-04 19:12:00,
2013-07-04 15:22:00,89.0,73.0,30.36,ENE,68,0.0,1.0,60,0.00,,,0.15,,2013-07-04 19:22:00,
2013-07-04 15:33:00,89.0,73.0,30.36,SSW,203,0.0,1.0,60,0.00,,,0.15,,2013-07-04 19:33:00,
2013-07-04 15:43:00,89.0,73.0,30.35,SSW,210,1.0,1.0,60,0.00,,,0.15,,2013-07-04 19:43:00,
2013-07-04 15:53:00,89.0,73.0,30.35,ESE,113,1.0,3.0,60,0.00,,,0.15,,2013-07-04 19:53:00,
2013-07-04 16:02:00,89.0,73.0,30.34,SW,225,0.0,1.0,60,0.00,,,0.15,,2013-07-04 20:02:00,
2013-07-04 16:11:00,89.0,73.0,30.34,West,266,1.0,2.0,60,0.00,,,0.15,,2013-07-04 20:11:00,
2013-07-04 16:22:00,89.0,73.0,30.34,West,266,1.0,2.0,60,0.00,,,0.15,,2013-07-04 20:22:00,
2013-07-04 16:34:00,89.0,73.0,30.34,SW,221,2.0,3.0,60,0.00,,,0.05,,2013-07-04 20:34:00,
2013-07-04 16:42:00,89.0,73.0,30.34,South,176,3.0,3.0,60,0.00,,,0.05,,2013-07-04 20:42:00,
2013-07-04 16:53:00,90.0,74.0,30.34,SE,135,2.0,3.0,60,0.00,,,0.05,,2013-07-04 20:53:00,
2013-07-04 17:01:00,90.0,74.0,30.33,SSW,205,1.0,2.0,60,0.00,,,0.05,,2013-07-04 21:01:00,
2013-07-04 17:12:00,89.0,72.0,30.33,SW,225,1.0,1.0,58,0.00,,,0.05,,2013-07-04 21:12:00,
2013-07-04 17:22:00,89.0,73.0,30.33,SSW,199,1.0,2.0,60,0.00,,,0.00,,2013-07-04 21:22:00,
2013-07-04 17:32:00,90.0,74.0,30.33,NW,307,2.0,3.0,60,0.00,,,0.00,,2013-07-04 21:32:00,
2013-07-04 17:43:00,90.0,74.0,30.33,SW,225,2.0,2.0,60,0.00,,,0.00,,2013-07-04 21:43:00,
2013-07-04 17:53:00,90.0,74.0,30.33,South,191,2.0,4.0,59,0.00,,,0.00,,2013-07-04 21:53:00,
2013-07-04 18:02:00,90.0,74.0,30.33,SSW,203,0.0,0.0,59,0.00,,,0.00,,2013-07-04 22:02:00,
2013-07-04 18:12:00,89.0,73.0,30.33,NW,308,1.0,2.0,59,0.00,,,0.00,,2013-07-04 22:12:00,
2013-07-04 18:22:00,89.0,73.0,30.32,SSW,203,3.0,3.0,60,0.00,,,0.00,,2013-07-04 22:22:00,
2013-07-04 18:33:00,89.0,73.0,30.32,SSW,203,3.0,3.0,60,0.00,,,0.00,,2013-07-04 22:33:00,
2013-07-04 18:43:00,89.0,73.0,30.32,SSW,203,3.0,3.0,60,0.00,,,0.00,,2013-07-04 22:43:00,
2013-07-04 18:52:00,89.0,73.0,30.32,SSW,203,3.0,3.0,60,0.00,,,0.00,,2013-07-04 22:52:00,
2013-07-04 19:01:00,88.0,73.0,30.33,SW,221,1.0,1.0,61,0.00,,,0.00,,2013-07-04 23:01:00,
2013-07-04 19:12:00,88.0,73.0,30.33,WSW,248,1.0,1.0,61,0.00,,,0.00,,2013-07-04 23:12:00,
2013-07-04 19:33:00,87.0,71.0,30.33,SE,135,2.0,3.0,59,0.00,,,0.00,,2013-07-04 23:33:00,
2013-07-04 19:43:00,87.0,71.0,30.33,SW,225,0.0,3.0,60,0.00,,,0.00,,2013-07-04 23:43:00,
2013-07-04 19:52:00,88.0,72.0,30.34,SE,142,2.0,3.0,60,0.00,,,0.00,,2013-07-04 23:52:00,
2013-07-04 20:01:00,89.0,74.0,30.34,SSW,203,1.0,2.0,61,0.00,,,0.00,,2013-07-05 00:01:00,
2013-07-04 20:12:00,89.0,74.0,30.34,WNW,293,1.0,2.0,61,0.00,,,0.00,,2013-07-05 00:12:00,
2013-07-04 20:22:00,87.0,72.0,30.34,WSW,248,1.0,2.0,61,0.00,,,0.00,,2013-07-05 00:22:00,
2013-07-04 20:32:00,85.0,70.0,30.34,NNW,338,0.0,1.0,61,0.00,,,0.00,,2013-07-05 00:32:00,
2013-07-04 20:43:00,85.0,70.0,30.34,NNW,338,0.0,1.0,61,0.00,,,0.00,,2013-07-05 00:43:00,
2013-07-04 20:52:00,84.0,69.0,30.35,WSW,248,0.0,0.0,60,0.00,,,0.00,,2013-07-05 00:52:00,
2013-07-04 21:01:00,84.0,69.0,30.35,WSW,248,0.0,0.0,60,0.00,,,0.00,,2013-07-05 01:01:00,
2013-07-04 21:11:00,83.0,67.0,30.35,SSE,160,1.0,1.0,59,0.00,,,0.00,,2013-07-05 01:11:00,
2013-07-04 21:22:00,83.0,67.0,30.35,SSE,160,1.0,1.0,59,0.00,,,0.00,,2013-07-05 01:22:00,
2013-07-04 21:32:00,83.0,67.0,30.35,SSW,203,1.0,1.0,58,0.00,,,0.00,,2013-07-05 01:32:00,
2013-07-04 21:42:00,83.0,67.0,30.35,SSW,203,1.0,1.0,58,0.00,,,0.00,,2013-07-05 01:42:00,
2013-07-04 21:52:00,83.0,67.0,30.35,SSW,203,1.0,1.0,58,0.00,,,0.00,,2013-07-05 01:52:00,
2013-07-04 22:02:00,81.0,63.0,30.36,SSE,158,0.0,0.0,55,0.00,,,0.00,,2013-07-05 02:02:00,
2013-07-04 22:22:00,80.0,62.0,30.36,SW,225,1.0,1.0,54,0.00,,,0.00,,2013-07-05 02:22:00,
2013-07-04 22:32:00,80.0,61.0,30.36,WSW,248,0.0,1.0,53,0.00,,,0.00,,2013-07-05 02:32:00,
2013-07-04 22:42:00,80.0,61.0,30.36,WSW,248,0.0,1.0,53,0.00,,,0.00,,2013-07-05 02:42:00,
2013-07-04 22:52:00,80.0,61.0,30.36,WSW,248,0.0,1.0,53,0.00,,,0.00,,2013-07-05 02:52:00,